This is the latest recevied weather packets stored in our database for station/object KD6VEX-1. If no packets are shown the sender has not sent any weather packets the latest 10 day(s).
| Time | Temp. | Humidity | Pressure | Rain* | Wind** | Luminosity | Snow |
|---|---|---|---|---|---|---|---|
| 1778035836 | 15.56° C | 67% | 1015.1 hPa | 0 mm | - | - | - |
| 1778035535 | 15.56° C | 67% | 1015 hPa | 0 mm | - | - | - |
| 1778035235 | 16.11° C | 66% | 1014.9 hPa | 0 mm | - | - | - |
| 1778034935 | 16.11° C | 66% | 1014.8 hPa | 0 mm | - | - | - |
| 1778034635 | 16.11° C | 65% | 1014.7 hPa | 0 mm | - | - | - |
| 1778034335 | 16.11° C | 65% | 1014.7 hPa | 0 mm | - | - | - |
| 1778034037 | 16.67° C | 63% | 1014.6 hPa | 0 mm | - | - | - |
| 1778033737 | 17.22° C | 62% | 1014.6 hPa | 0 mm | - | - | - |
| 1778033435 | 17.22° C | 62% | 1014.7 hPa | 0 mm | - | - | - |
| 1778033137 | 17.22° C | 61% | 1014.6 hPa | 0 mm | - | - | - |
| 1778032835 | 17.78° C | 61% | 1014.5 hPa | 0 mm | - | - | - |
| 1778032535 | 17.78° C | 60% | 1014.5 hPa | 0 mm | - | - | - |
| 1778032236 | 17.78° C | 60% | 1014.3 hPa | 0 mm | - | - | - |
| 1778031935 | 18.33° C | 57% | 1014.3 hPa | 0 mm | - | - | - |
| 1778031635 | 19.44° C | 55% | 1014.2 hPa | 0 mm | - | - | - |
| 1778031337 | 19.44° C | 55% | 1014.2 hPa | 0 mm | - | - | - |
| 1778031035 | 19.44° C | 54% | 1014.1 hPa | 0 mm | - | - | - |
| 1778030737 | 20° C | 52% | 1014.3 hPa | 0 mm | - | - | - |
| 1778030135 | 20° C | 52% | 1014.2 hPa | 0 mm | - | - | - |
| 1778029835 | 20° C | 52% | 1014.3 hPa | 0 mm | - | - | - |
| 1778029537 | 20° C | 52% | 1014.3 hPa | 0 mm | - | - | - |
| 1778029235 | 20° C | 52% | 1014.2 hPa | 0 mm | - | - | - |
| 1778028935 | 20.56° C | 51% | 1014.1 hPa | 0 mm | - | - | - |
| 1778028636 | 20.56° C | 50% | 1014.1 hPa | 0 mm | - | - | - |
| 1778028335 | 20.56° C | 50% | 1014.1 hPa | 0 mm | - | - | - |
* Rain latest hour (hover to see other rain measurements)
** Current wind speed in m/s (hover to see current wind gust speed)